Location: Borowce
(50.8255°N, 19.6209°E)
Time: 08:46:15
(UTC+00:00)

Cosmos 1515 Rocket - Pass Details

Date: 19 May 2025
Orbit: 601 x 622 km, 82.5° (Epoch: 16 June)

Event Time Altitude Azimuth Distance (km) Brightness Sun altitude
Exits shadow 23:14:56 30° 142° (SE) 1,096 4.5 -18.7°
Maximum altitude 23:16:31 43° 93° (E) 862 4.3 -18.7°
Drops below altitude 10° 23:20:41 10° 22° (NNE) 1,985 7.4 -18.6°
Sets 23:23:00 0° 16° (NNE) 2,899 8.7 -18.5°
